カタログに戻る

ARABSAT 2A

運用中通信GEO
NORAD 23948·PAYLOAD·🇦🇪 UAE🇸🇦 Saudi Arabia

打ち上げ Jul 9, 1996 から Guiana Space Centre

Loading…

TLE

最新Source: Space-Track

元期: Sep 13, 2026, 21:00 UTC

1 23948U 96040A   26256.87500252  .00000058  00000-0  00000+0 0  9997
2 23948  14.3117   8.3654 0005377 180.0455 183.5805  0.99224977109746

AllMySatでARABSAT 2Aをリアルタイム追跡

Download on the App Store